Overview Statistics Trail Chart Weather Telemetry Raw packets
 

This is the latest recevied weather packets stored in our database for station/object EA1PYE-10. If no packets are shown the sender has not sent any weather packets the latest 10 day(s).

<< 15 16 17 18 19 >>
Time Temp. Humidity Pressure Rain* Wind** Luminosity Snow
1787843037 18.33° C 50% 1010.1 hPa - - - -
1787841237 18.89° C 49% 1009.8 hPa - - - -
1787839437 18.33° C 49% 1009.5 hPa - - - -
1787837636 18.33° C 48% 1010.3 hPa - - - -
1787835836 18.33° C 50% 1009.7 hPa - - - -
1787834036 18.89° C 50% 1008.7 hPa - - - -
1787832236 18.33° C 52% 1008.5 hPa - - - -
1787830436 18.33° C 51% 1008.8 hPa - - - -
1787828636 18.33° C 51% 1009.3 hPa - - - -
1787826836 18.33° C 50% 1009.9 hPa - - - -
1787825036 18.89° C 49% 1009.8 hPa - - - -
1787823236 18.89° C 49% 1009.5 hPa - - - -
1787821436 18.89° C 48% 1009.8 hPa - - - -
1787819636 18.89° C 47% 1009.9 hPa - - - -
1787817836 19.44° C 47% 1010.1 hPa - - - -
1787816035 19.44° C 46% 1010.1 hPa - - - -
1787814235 18.33° C 48% 1010.3 hPa - - - -
1787812435 21.11° C 41% 1010.1 hPa - - - -
1787810635 18.33° C 47% 1009.7 hPa - - - -
1787808835 18.33° C 46% 1009.8 hPa - - - -
1787807035 17.78° C 46% 1009.6 hPa - - - -
1787805235 18.33° C 46% 1009.5 hPa - - - -
1787803435 18.33° C 46% 1009.7 hPa - - - -
1787801635 18.33° C 46% 1009.6 hPa - - - -
1787799835 18.89° C 46% 1009.8 hPa - - - -

* Rain since midnight (hover to see other rain measurements)
** Current wind speed in m/s (hover to see current wind gust speed)